RH
27 27 27 27 26 25 24 23 21 19 17 14 11 10 11 12 11 9 6 6 6 5 7 7 7 8 7 8 5 4 3 3 4 4 6 7 10 7 1 4 6 11 9 12 42 55 46 42 39 43 48 48 46 43 44 44 42 48 47 59 76 65 63 70 66 64 67 73 75 76 68 59 64 65 64 61 54 53 54 49 44 41 37 36 43 49 54 57
28 28 28 27 26 24 23 23 22 21 18 16 13 10 10 10 12 10 8 7 5 6 6 6 7 7 7 8 6 5 3 3 3 7 14 8 4 2 1 3 6 11 8 22 48 48 38 33 33 40 46 43 41 42 43 43 42 44 46 61 72 56 53 63 63 65 68 74 80 80 72 65 66 64 61 58 55 56 54 49 45 40 39 42 47 51 55 58
28 28 28 27 26 24 22 22 22 21 19 17 14 11 9 9 12 11 9 8 6 7 5 6 7 5 7 6 7 5 2 5 10 22 28 13 2 2 3 2 6 10 9 29 47 41 34 27 27 37 42 38 37 39 39 41 40 41 47 54 60 53 53 64 66 69 76 79 81 77 70 67 63 58 57 56 55 55 52 49 44 42 44 45 49 53 56 57
29 28 28 28 28 27 25 23 22 21 20 17 14 12 9 9 11 11 10 7 8 8 6 8 6 7 8 5 7 4 5 13 20 35 33 14 4 2 1 2 7 9 12 32 41 37 33 24 24 33 37 34 34 37 36 38 38 40 44 48 57 57 58 68 69 74 80 79 77 69 62 61 57 54 53 51 53 54 49 47 45 44 46 46 50 53 53 54
28 28 28 28 29 28 28 26 23 21 19 17 14 11 9 9 11 12 9 7 8 8 8 9 7 9 6 6 7 2 11 15 19 36 30 13 6 2 1 2 8 8 16 32 36 36 32 22 22 29 33 30 31 36 35 35 38 38 39 48 60 58 66 75 70 75 80 78 76 64 56 56 55 55 49 43 47 49 45 45 46 45 45 46 48 49 50 51
28 28 27 27 28 28 29 28 25 21 18 16 13 11 10 9 11 11 9 7 8 8 9 9 9 8 5 8 3 2 17 15 19 34 26 14 8 1 1 3 7 12 23 31 30 34 30 21 21 26 29 26 30 34 33 34 37 38 39 52 61 56 68 74 68 73 79 80 75 61 55 55 55 55 51 45 44 46 45 42 45 45 44 45 44 45 47 48
28 28 27 26 27 28 30 30 27 22 18 15 12 11 10 10 12 10 8 7 8 9 9 9 8 6 5 5 3 14 22 14 21 28 19 17 11 1 1 3 6 14 28 29 25 31 27 20 20 23 24 25 32 32 32 34 33 37 42 52 59 60 68 67 63 67 72 80 76 61 54 51 53 55 56 56 51 48 46 43 44 45 43 43 42 42 43 45
27 27 27 26 27 29 30 29 26 21 17 14 12 11 10 11 12 8 7 8 12 13 12 13 8 6 6 2 14 29 21 16 23 22 17 19 14 6 2 2 5 17 32 26 22 29 23 19 19 20 22 24 31 32 32 31 29 34 41 51 58 61 67 63 58 61 67 74 70 61 55 52 55 58 60 60 54 50 46 43 44 43 42 42 40 41 42 44
27 27 27 26 28 30 28 23 21 18 15 13 11 11 11 12 10 7 10 13 17 19 18 18 10 7 3 3 23 28 17 21 23 17 17 16 15 10 3 2 5 20 32 20 19 24 20 18 17 18 21 24 30 32 31 29 28 30 36 49 59 60 64 63 61 65 70 71 70 67 62 58 59 60 62 61 53 49 45 42 42 41 42 41 40 41 42 43
27 27 27 26 28 29 23 17 16 16 13 12 11 11 12 10 8 9 14 18 22 23 22 21 15 8 3 10 27 21 16 25 25 22 17 10 12 11 10 10 10 23 28 16 15 18 17 16 14 19 23 25 30 30 29 27 24 29 36 43 50 51 53 59 66 72 76 77 76 76 68 60 62 63 62 61 52 47 45 42 41 41 41 41 41 41 42 42
26 26 26 26 28 27 21 16 14 14 11 11 11 10 10 8 9 13 18 22 23 24 24 21 19 10 4 19 29 16 15 24 31 29 16 11 15 16 19 18 15 22 23 16 15 14 15 15 13 19 23 25 29 29 28 22 21 31 38 39 43 47 49 52 59 68 76 80 78 77 73 65 65 64 61 58 52 48 45 42 41 40 40 41 41 42 43 42
26 26 25 26 28 25 24 22 18 17 16 15 14 13 12 11 15 19 22 24 25 27 25 22 22 10 8 26 25 12 14 23 32 29 19 20 20 20 22 17 16 20 20 18 15 14 15 14 15 19 21 25 28 29 26 21 21 29 39 49 52 50 56 57 56 62 68 76 78 73 71 70 68 64 61 57 51 49 43 41 41 38 40 41 41 43 42 42
26 25 24 25 27 25 26 26 25 25 25 25 24 23 23 23 27 28 26 25 26 30 27 24 20 11 21 31 16 10 18 24 28 26 21 20 17 18 20 17 18 19 19 18 15 15 15 14 16 18 20 24 27 27 23 19 20 23 37 60 64 56 61 62 61 63 63 71 77 72 70 74 72 66 63 57 51 48 42 40 40 37 39 40 41 42 41 42
26 25 23 25 27 25 26 26 25 26 27 27 26 25 25 25 27 28 30 27 28 32 29 26 16 16 36 29 9 14 23 25 25 22 20 16 14 16 18 20 21 20 19 17 15 15 15 15 16 16 18 22 25 25 21 19 18 19 31 50 59 61 65 65 66 67 67 74 77 71 70 72 72 70 64 58 51 46 42 39 39 37 38 39 40 40 40 41
26 25 23 25 27 25 26 26 25 24 24 23 22 23 22 22 21 21 26 27 31 32 26 23 16 24 40 21 10 22 25 27 24 19 21 16 14 14 15 18 18 20 19 17 16 15 15 15 14 14 16 22 25 24 21 18 16 18 29 39 44 54 64 67 67 68 67 73 76 68 67 74 76 70 64 61 54 45 42 40 38 37 37 38 38 37 39 40
25 25 23 24 27 26 25 27 27 24 25 24 23 23 22 22 19 17 21 26 31 28 26 33 31 36 37 15 14 26 26 30 24 19 21 17 16 13 13 15 15 17 17 16 16 14 14 12 12 11 13 21 25 24 21 18 17 19 28 36 40 50 61 62 61 65 68 71 78 70 70 87 85 70 65 64 58 49 44 40 38 38 37 36 36 36 38 39
22 25 23 23 26 26 26 28 28 26 27 26 25 24 25 25 20 21 26 24 25 22 23 34 38 37 28 11 16 24 24 29 25 21 20 18 19 14 11 12 11 14 13 14 14 13 12 10 11 10 10 18 21 23 22 20 22 21 26 31 35 42 49 54 56 60 66 68 72 71 74 85 83 73 68 64 62 55 47 43 39 37 38 35 35 36 38 41
20 23 23 22 25 26 26 28 28 28 27 27 26 24 27 28 22 25 27 21 26 31 25 25 30 29 19 10 16 20 21 27 27 24 22 21 20 15 13 10 9 11 10 11 12 11 11 8 10 9 11 18 20 24 24 20 21 21 27 26 31 47 50 50 55 53 55 61 63 70 76 78 78 76 68 63 64 58 50 47 42 37 39 37 34 35 38 41
18 21 23 22 23 26 26 27 28 28 27 28 26 25 33 38 32 29 30 34 40 37 26 23 25 22 15 13 17 18 20 26 28 26 24 22 20 16 15 12 9 9 7 9 10 10 9 7 9 10 13 19 21 23 20 17 17 17 23 20 26 57 65 49 48 46 46 55 59 66 75 76 78 76 66 65 65 58 53 51 46 39 38 39 36 35 37 40
17 19 22 22 23 26 25 26 27 27 28 27 25 31 41 42 35 30 36 44 37 22 15 17 17 16 15 14 16 19 21 25 26 25 24 22 20 16 15 14 10 6 6 7 8 9 8 7 9 9 11 16 17 19 16 13 15 13 18 20 18 41 59 45 42 45 40 52 64 62 66 72 78 76 67 67 66 59 55 51 51 44 38 40 37 35 37 39
16 17 21 22 22 25 25 26 26 26 29 25 25 36 35 26 24 24 28 29 20 15 15 15 16 16 15 14 15 19 20 21 22 23 23 21 19 14 13 13 9 6 5 5 7 8 8 7 8 8 8 12 15 16 16 14 15 14 15 21 19 25 42 41 39 42 38 59 76 60 57 67 74 79 74 72 69 63 58 52 52 49 41 41 40 36 39 39
16 16 19 21 22 24 25 26 26 27 27 23 28 34 25 21 26 26 26 20 12 15 17 15 17 16 15 16 16 18 20 18 19 21 21 21 17 12 11 12 10 7 4 4 7 9 9 8 6 7 7 12 16 15 15 16 15 15 14 18 20 18 29 42 45 42 38 65 86 61 51 64 69 76 79 76 73 67 63 56 51 50 44 42 43 39 40 41
16 15 18 21 21 23 25 24 24 24 23 23 29 29 22 25 28 28 29 22 14 15 15 14 15 14 16 17 15 18 19 16 18 20 20 19 15 12 11 9 9 8 4 4 7 10 11 8 5 6 7 11 16 15 15 19 15 14 13 13 17 16 23 38 51 55 48 62 83 66 59 76 77 77 80 77 76 72 69 67 63 59 51 44 43 41 40 42
16 15 17 20 20 22 23 21 21 22 24 27 29 26 24 27 28 29 29 20 13 13 13 14 14 14 16 16 15 17 18 15 15 17 19 19 15 13 11 8 8 7 5 4 5 9 8 6 6 5 8 11 15 17 17 20 16 13 13 10 13 17 18 23 34 48 46 44 55 54 65 91 90 85 84 80 81 78 75 79 75 67 60 50 43 42 42 42
15 15 16 18 20 21 20 20 22 25 26 28 28 26 26 27 28 31 29 20 13 12 13 14 14 14 16 17 17 17 15 12 13 16 18 18 15 12 11 9 8 7 7 6 5 6 5 7 8 5 10 16 18 20 19 18 16 12 13 10 10 14 16 21 25 33 41 38 36 37 55 83 86 79 79 83 90 85 77 77 71 66 65 58 47 43 42 42
15 14 14 17 19 18 19 24 25 24 23 23 24 25 25 27 29 31 30 23 14 10 12 12 11 13 13 16 17 16 15 12 13 16 16 16 16 13 12 10 9 8 7 6 5 5 4 8 12 10 15 20 20 20 17 16 16 12 11 9 10 12 14 21 23 26 36 37 33 31 41 67 83 77 70 78 90 87 80 75 69 67 69 63 52 46 44 42
14 14 13 16 18 17 20 25 24 22 21 21 23 24 25 27 28 31 31 24 14 9 10 9 10 11 10 13 13 13 18 16 14 16 14 15 16 14 14 11 9 10 8 7 7 5 5 10 14 14 17 19 19 19 16 14 15 14 10 9 10 11 13 18 20 23 25 25 28 29 32 51 72 73 65 71 84 84 82 80 73 68 68 63 53 48 46 42
13 13 13 16 18 17 19 21 22 23 20 20 23 24 26 28 28 31 31 23 14 9 8 8 9 10 9 11 11 12 17 15 14 17 15 15 16 14 13 10 9 10 9 8 9 5 6 12 14 13 14 15 15 16 15 13 14 13 10 9 9 10 12 13 16 19 18 23 30 28 30 43 57 68 69 69 79 84 81 80 77 69 69 66 57 52 49 44
12 12 13 15 16 17 18 18 20 23 21 22 25 25 27 30 29 29 27 19 11 8 8 8 8 9 8 8 9 11 12 12 14 17 16 16 16 15 14 11 9 10 10 9 9 7 7 11 12 11 12 12 12 12 12 12 14 13 11 11 10 10 11 11 15 18 18 26 32 27 31 43 52 67 81 77 76 78 73 72 73 70 71 71 64 57 51 46
11 11 12 14 16 18 18 18 20 22 23 24 25 26 29 30 30 28 24 16 10 8 8 8 7 7 7 7 8 9 8 10 13 16 17 16 15 15 15 13 11 10 12 10 8 9 9 10 11 10 10 10 10 11 11 11 13 12 12 13 12 12 11 11 13 17 24 31 31 24 25 38 47 57 74 79 69 62 63 67 69 67 70 73 70 63 53 47
10 11 12 13 16 17 18 22 24 23 22 23 24 27 29 27 26 24 19 12 9 9 8 7 7 7 6 6 8 8 6 8 11 13 16 15 13 13 13 14 12 11 13 11 8 10 11 13 13 10 9 9 8 9 10 10 12 13 13 14 14 14 14 16 15 19 31 35 29 23 20 30 43 44 50 57 50 44 52 61 64 62 64 68 69 67 59 50
9 11 12 13 15 15 17 21 22 21 19 22 25 26 27 26 21 16 12 10 11 10 7 7 7 6 6 6 7 8 6 7 9 10 13 14 13 12 11 13 13 13 15 12 9 11 13 12 11 10 10 10 10 10 10 11 12 13 14 15 17 18 18 21 22 23 31 32 26 24 21 26 37 38 39 43 40 37 42 50 54 56 60 61 61 65 65 58
10 10 11 13 14 14 16 17 19 19 19 24 27 24 25 25 17 11 9 9 10 9 6 8 7 6 7 7 7 7 7 8 8 8 10 12 13 13 11 11 12 13 15 12 9 11 13 12 10 10 10 11 12 11 11 12 12 12 14 16 17 19 22 25 25 25 26 27 22 21 24 29 36 40 42 45 41 36 42 50 49 50 56 56 58 66 67 62
10 11 12 12 13 14 15 16 17 19 20 24 26 23 24 21 13 10 10 8 9 8 7 8 7 7 8 7 8 7 8 10 8 7 9 11 14 14 12 12 11 12 13 13 10 9 12 14 11 10 10 10 11 10 9 9 8 9 10 12 14 16 20 23 21 21 21 22 21 23 29 32 35 42 45 49 49 40 43 58 57 49 50 55 60 67 66 62
11 11 13 12 14 15 14 17 18 18 21 23 22 21 21 17 11 10 10 8 8 7 7 7 7 8 8 8 8 7 9 11 9 8 10 12 14 14 13 12 10 11 13 14 13 10 11 13 9 9 9 9 9 8 8 8 8 8 6 9 13 11 13 17 16 15 17 18 19 22 27 30 37 46 48 53 56 41 36 54 62 50 45 55 63 65 64 66
14 14 15 17 22 22 17 17 17 17 22 23 20 18 15 12 11 10 10 9 8 8 8 8 8 9 9 9 9 8 9 11 10 11 12 12 13 12 13 12 10 10 11 14 15 12 12 11 8 9 9 8 9 7 7 9 9 8 7 8 9 8 9 13 15 14 15 19 20 19 22 29 39 46 44 44 48 39 30 38 49 49 47 53 60 63 63 67
22 20 20 23 24 22 18 16 15 18 24 23 19 16 11 10 10 8 9 9 8 8 9 11 11 9 10 11 11 10 10 11 12 12 13 13 13 12 11 11 11 10 10 12 14 13 13 13 10 10 10 9 9 8 6 8 9 8 8 7 6 7 8 10 14 16 17 21 22 19 20 25 35 46 44 35 36 42 37 31 37 51 58 56 54 61 64 66
28 23 21 22 21 20 17 14 14 19 23 18 15 14 10 9 9 8 8 9 8 8 9 11 11 9 9 11 10 10 11 13 13 14 15 14 13 13 10 10 11 10 10 11 12 12 13 15 12 8 10 9 7 8 8 7 7 7 8 6 5 9 10 10 14 16 18 21 21 21 22 19 25 41 44 35 37 47 43 33 35 46 61 65 57 59 66 67
27 24 18 19 21 20 15 12 15 21 21 16 13 13 10 8 9 8 9 9 8 9 10 10 10 9 9 10 11 9 9 12 13 14 17 15 13 12 10 10 10 9 10 10 11 11 12 16 16 9 8 9 8 10 10 8 8 7 7 7 7 9 9 9 12 13 17 19 20 22 20 19 30 40 40 39 46 49 41 40 47 48 54 65 64 63 68 70
24 22 18 19 20 17 13 14 19 19 16 14 12 11 9 8 9 9 9 9 8 9 10 9 9 10 10 9 9 9 9 11 11 12 15 14 12 12 10 10 11 9 10 10 10 11 11 16 18 12 9 10 10 10 9 8 8 7 9 10 8 8 7 8 9 10 14 16 19 19 19 32 51 52 46 46 49 47 41 45 60 64 58 56 61 66 70 72
23 17 17 20 18 15 14 17 18 14 11 10 10 9 9 9 8 9 9 9 9 9 9 10 10 10 11 10 9 10 10 10 10 10 11 11 11 11 11 11 11 10 10 10 9 11 13 15 17 15 12 11 11 8 6 7 8 7 8 9 9 8 9 11 12 9 8 11 14 15 22 42 55 52 50 50 45 43 43 42 52 68 72 61 57 64 69 74
23 16 18 20 17 15 17 17 12 10 9 9 9 9 10 10 8 8 9 8 8 8 8 10 11 10 11 11 10 10 10 9 10 10 10 10 11 11 12 12 11 11 10 10 9 10 13 16 17 18 14 12 12 9 6 6 8 8 7 5 7 8 8 12 13 11 9 8 9 9 21 43 49 46 50 51 44 43 44 42 44 61 77 71 58 60 70 77
19 16 19 19 16 16 18 16 9 8 9 9 9 8 8 9 8 7 8 8 8 8 8 9 10 11 11 11 11 11 11 11 11 10 10 11 11 12 12 11 11 10 10 11 11 12 14 17 21 22 17 13 12 9 9 8 8 9 8 6 6 6 7 9 8 10 10 8 10 8 16 39 48 46 50 51 50 50 48 48 50 57 71 75 67 64 69 75
17 15 18 17 16 16 17 14 9 9 10 9 8 8 7 7 8 9 9 9 9 9 10 10 10 11 11 10 12 12 12 14 14 12 11 11 12 13 12 12 11 10 11 14 14 15 16 18 23 26 24 22 19 15 13 11 9 9 8 7 7 5 8 9 7 11 12 10 12 7 15 45 56 47 48 51 51 51 48 50 54 58 65 71 73 73 72 76
18 13 16 14 14 15 14 13 9 8 10 10 9 9 8 8 9 9 9 10 10 10 11 12 10 10 11 10 12 13 11 13 15 14 12 11 12 12 12 12 12 11 13 17 17 14 16 19 23 28 30 29 28 26 20 14 11 10 8 9 10 10 12 13 11 13 15 16 16 10 23 55 63 50 49 51 49 52 52 51 54 59 65 70 74 76 75 80
20 13 14 12 12 12 10 10 9 8 9 10 10 9 7 9 9 8 9 9 11 11 11 12 11 10 11 11 13 14 12 12 14 15 14 13 13 13 12 12 12 12 14 17 18 14 14 19 21 26 30 27 28 29 22 15 13 11 11 13 15 14 14 14 15 17 20 19 16 15 26 45 53 52 53 53 51 54 56 54 55 59 65 72 78 79 76 80
20 13 12 12 12 10 10 10 7 8 9 8 11 10 8 10 9 8 9 9 10 11 11 11 11 11 13 14 14 16 15 14 15 16 16 15 14 12 13 12 11 13 14 16 16 14 16 19 18 20 24 21 22 23 17 15 17 17 17 18 18 16 14 17 19 20 23 22 20 28 35 32 33 42 48 52 53 54 54 54 58 63 67 73 79 81 79 81
19 15 15 16 14 10 10 11 8 8 9 8 10 10 9 10 10 10 10 8 9 10 11 13 13 11 13 13 14 18 19 18 19 19 18 18 16 14 15 14 11 13 14 13 13 14 17 19 15 15 18 16 16 18 16 15 16 17 19 18 19 18 17 20 21 17 20 23 23 35 43 35 33 39 42 47 51 51 53 56 61 68 72 75 77 78 80 82
17 17 18 14 14 13 11 12 11 8 8 10 11 10 11 11 11 11 9 8 11 10 11 16 16 12 11 12 15 20 22 24 28 26 22 20 18 17 18 17 14 13 13 12 13 16 19 19 15 15 17 16 15 15 16 15 15 16 17 16 18 20 19 23 23 20 25 28 25 28 38 45 50 51 47 46 49 54 58 60 65 70 73 75 76 76 80 84
32 34 32 20 12 14 15 12 11 10 9 11 13 11 11 11 11 11 8 8 15 14 11 15 16 13 12 12 16 19 19 22 27 25 21 21 20 19 20 19 16 14 14 14 15 17 19 19 17 17 19 19 16 16 16 16 17 17 15 15 16 16 20 25 26 28 33 33 26 21 29 50 61 57 53 52 54 58 59 59 65 69 70 75 78 79 83 86
48 46 43 35 18 13 16 11 10 13 10 11 13 12 11 11 10 12 10 9 14 15 12 13 14 13 13 14 16 17 15 16 18 17 15 17 17 17 18 18 15 15 16 17 17 17 18 19 18 18 21 19 16 16 16 15 16 18 17 17 17 18 22 25 28 35 37 35 33 25 29 55 66 58 55 57 57 59 58 58 64 66 69 75 78 81 83 85
51 46 41 38 25 16 17 12 10 13 12 11 13 12 11 12 10 11 14 13 12 13 12 13 14 14 14 16 17 16 14 13 14 13 13 13 13 12 13 13 13 14 16 17 17 17 18 20 20 20 22 21 16 15 17 17 19 23 20 15 18 26 29 26 28 34 33 35 43 40 42 60 66 57 57 58 56 59 61 62 67 70 71 75 77 79 81 81
Wind_Speed
12 12 12 12 12 11 11 12 11 11 11 10 9 9 8 7 7 7 6 6 6 6 7 7 7 8 9 9 9 8 8 8 8 8 8 7 8 12 12 9 9 11 11 11 11 11 11 11 10 9 9 9 9 8 6 7 7 6 6 4 3 5 5 3 3 5 11 11 11 10 10 11 12 11 12 11 13 15 13 10 11 12 16 21 25 29 28 26
12 12 13 13 12 12 12 11 11 12 11 10 9 9 8 7 7 7 6 6 6 6 7 7 8 8 8 9 9 9 8 7 7 9 10 10 10 10 11 11 10 11 11 12 14 14 12 11 10 9 9 9 7 6 5 5 4 4 4 4 4 5 7 5 2 11 14 13 12 8 10 12 12 14 14 12 14 15 13 12 14 18 22 26 29 28 26 26
11 12 13 13 13 13 13 12 12 12 11 11 10 8 7 7 6 6 6 6 6 6 7 7 8 8 8 8 8 8 6 6 8 8 10 9 9 10 10 11 11 11 12 14 15 14 11 9 9 9 10 9 7 6 5 4 4 3 4 4 4 6 8 5 7 13 15 18 14 9 13 14 13 14 14 13 15 14 12 14 18 23 26 28 29 28 26 25
11 12 13 13 14 14 14 13 12 12 12 11 10 8 7 6 6 6 5 5 6 7 7 8 8 8 8 8 7 6 6 7 5 3 6 8 8 10 10 11 12 11 13 13 13 13 11 8 8 10 11 9 7 7 5 4 3 3 4 5 7 7 7 4 10 14 16 19 15 12 14 15 14 13 13 15 13 10 12 15 19 25 28 29 30 28 26 24
11 12 13 13 14 14 15 14 13 12 11 11 10 8 6 5 5 5 4 5 6 6 7 8 8 8 8 7 7 5 5 4 3 2 7 8 6 8 8 10 12 12 14 13 13 13 12 9 9 11 11 9 6 6 6 4 3 4 3 9 11 8 7 5 13 17 17 15 12 14 14 13 15 12 13 14 10 8 12 15 19 26 29 30 30 28 25 24
11 12 13 13 14 14 15 15 14 12 11 10 9 7 5 5 5 4 4 5 6 7 8 9 9 9 8 6 5 3 5 2 5 4 8 5 5 6 7 11 13 14 14 13 13 13 12 11 11 11 11 8 5 5 5 3 2 4 2 9 11 11 9 8 17 18 16 14 11 11 14 15 15 13 11 10 10 13 13 16 21 25 27 28 28 26 25 23
11 12 13 14 14 15 15 15 13 12 10 9 8 6 5 4 5 5 5 5 6 8 8 9 9 8 8 6 4 3 8 3 5 4 4 2 4 5 8 11 15 15 15 15 15 14 12 12 13 11 10 6 5 6 5 3 3 4 3 10 12 13 11 12 17 17 15 16 13 11 14 15 14 13 10 11 14 15 14 18 22 25 26 26 26 25 24 22
11 12 13 14 15 16 16 15 12 10 9 8 7 5 5 5 5 5 5 6 6 7 7 9 9 8 7 4 4 7 9 1 4 3 2 1 3 5 9 13 16 16 14 16 16 14 13 13 13 12 10 4 4 6 4 5 4 1 3 7 12 13 11 12 15 15 13 12 12 12 12 12 12 12 11 13 15 15 17 20 23 25 26 25 24 24 23 21
10 12 13 14 16 17 16 14 11 9 8 7 6 5 5 5 5 5 5 6 6 6 8 9 9 8 6 4 6 9 3 6 4 5 3 1 3 6 11 14 16 15 13 15 16 15 13 12 13 13 8 3 5 6 7 8 3 2 1 5 13 15 13 12 11 11 11 9 9 8 7 11 13 12 11 12 15 16 17 21 23 25 25 24 23 22 22 21
10 11 13 14 15 16 15 13 11 9 8 7 6 6 5 5 5 5 5 6 6 7 8 9 10 8 5 4 9 7 6 7 4 2 2 3 6 9 11 12 15 14 13 14 15 16 14 11 11 10 9 5 6 7 8 6 1 3 2 4 10 13 13 14 11 9 12 11 11 8 4 10 10 4 7 12 16 17 18 21 23 24 23 23 22 21 21 20
10 11 12 13 14 14 14 13 12 10 9 8 7 6 6 5 4 4 5 6 7 8 9 10 11 8 5 5 12 4 7 5 3 2 2 6 8 10 11 12 15 13 12 13 14 15 15 10 8 8 6 4 5 8 9 4 2 6 7 6 8 9 10 11 10 12 12 5 9 12 5 8 5 1 8 16 17 17 19 22 23 23 22 22 22 21 20 19
9 11 12 13 13 13 13 13 13 11 10 9 8 8 7 5 5 6 6 7 8 9 10 11 10 8 5 7 10 3 6 3 3 5 5 8 8 9 9 12 13 12 11 11 13 13 14 10 9 11 7 3 5 7 6 5 5 7 8 6 8 7 7 7 7 11 10 4 9 14 7 6 5 5 13 17 17 17 19 22 23 22 22 21 21 20 19 19
9 10 11 12 12 12 12 13 12 11 10 9 8 8 7 7 7 7 7 6 7 10 12 12 9 7 6 6 3 2 2 2 5 7 7 7 8 8 9 11 11 10 9 10 11 11 11 9 9 14 11 6 8 5 2 6 8 8 8 5 6 5 5 6 6 7 8 7 11 10 3 5 5 7 14 16 18 17 18 21 22 22 22 22 21 20 19 19
8 9 10 11 11 11 11 12 11 10 10 9 8 7 8 8 8 8 8 8 8 11 13 11 6 3 5 4 3 1 5 6 6 8 7 7 8 8 9 11 9 8 7 7 9 9 9 9 10 13 12 11 9 6 6 10 9 8 8 6 4 3 4 6 6 8 7 7 10 7 2 6 6 7 13 16 18 18 18 20 21 21 22 21 21 20 20 19
7 8 9 9 9 10 10 11 10 10 11 10 10 9 8 9 10 9 9 8 9 11 11 8 4 2 7 3 3 4 8 7 6 7 7 8 8 8 10 10 9 8 7 4 6 8 7 8 11 11 11 12 10 8 8 9 8 8 7 6 6 3 4 7 8 9 7 6 9 7 3 6 5 9 14 15 18 18 18 20 20 21 21 21 21 20 20 20
6 7 8 8 8 8 9 10 9 10 11 12 11 9 9 10 9 7 7 7 8 9 6 5 4 4 8 0 6 6 6 6 8 8 7 6 5 8 10 9 9 9 8 5 5 7 7 8 11 12 12 11 9 9 8 7 8 8 7 5 6 6 5 6 9 11 9 7 9 8 3 5 5 9 14 15 17 17 17 19 20 20 21 21 20 20 20 20
6 6 7 7 6 7 8 8 8 9 10 13 13 10 8 8 5 4 6 6 6 4 3 3 2 6 5 1 5 6 6 6 8 8 7 4 3 8 10 9 10 9 8 7 6 7 8 10 10 10 11 10 8 8 9 8 7 7 7 7 5 7 6 5 9 13 14 10 10 8 4 6 7 10 14 15 17 17 17 19 20 20 21 20 20 20 21 20
7 6 6 6 5 5 6 7 8 8 9 13 14 10 8 6 2 3 8 8 5 2 2 3 2 6 1 4 5 6 6 6 7 7 6 4 5 9 9 8 10 10 9 8 9 10 10 11 10 8 9 9 8 9 10 7 6 7 7 7 5 6 4 5 6 10 15 12 11 11 7 7 9 12 16 16 16 17 16 18 20 21 20 20 20 20 20 21
7 6 5 6 5 4 5 6 8 8 10 12 14 12 9 6 3 1 8 5 4 3 0 2 3 3 4 4 3 5 6 6 8 8 7 6 7 8 8 7 9 12 11 9 10 12 11 10 10 9 8 10 10 12 13 5 4 10 9 9 7 6 4 7 6 8 13 12 11 12 9 10 12 14 15 16 17 17 16 17 18 20 21 20 20 20 20 21
8 6 5 5 4 4 4 6 7 8 10 11 14 13 9 7 4 2 4 4 7 5 4 2 2 3 3 4 4 5 7 7 7 7 7 8 8 8 8 9 11 11 10 8 9 12 12 8 9 10 11 14 14 16 17 6 5 11 9 8 8 6 6 7 6 8 12 9 10 14 12 11 13 13 14 16 16 16 16 17 18 19 21 21 21 20 20 20
7 6 5 4 4 4 4 6 7 8 9 10 12 11 7 10 5 4 6 4 2 4 2 3 3 3 2 2 2 5 8 8 7 7 8 8 9 10 10 11 10 8 11 10 8 10 11 9 10 13 15 15 15 16 15 7 8 12 8 5 7 6 7 8 6 8 9 5 5 12 11 10 11 10 12 14 14 15 16 17 18 20 21 20 20 20 20 19
7 5 4 4 3 4 4 6 7 7 9 9 9 8 7 10 7 7 9 3 7 4 1 3 1 1 2 1 3 6 9 8 8 8 8 9 11 10 8 10 10 7 11 10 7 8 9 10 11 14 16 13 13 17 12 7 11 12 7 6 8 6 7 9 6 5 6 2 2 7 7 7 9 9 11 14 14 13 14 16 18 20 20 20 20 20 21 20
6 5 4 3 3 4 4 6 7 7 8 8 7 7 6 7 7 7 10 8 4 3 1 2 2 2 3 2 4 9 11 8 10 10 8 9 12 8 5 9 10 9 10 10 8 7 7 10 12 13 14 14 15 14 9 7 11 10 8 9 7 7 8 6 8 9 9 6 6 8 5 4 5 7 10 14 14 13 13 13 13 16 18 20 21 20 21 21
6 5 4 3 3 4 4 5 7 6 7 7 6 5 5 6 9 8 10 9 4 5 2 3 3 4 5 2 7 12 10 4 7 11 10 10 9 6 7 9 10 9 8 10 12 10 8 9 12 14 14 14 12 9 8 9 10 9 12 11 1 6 8 3 6 11 10 9 10 11 6 3 6 8 8 11 11 11 12 10 11 13 13 17 21 21 21 22
5 5 3 3 2 3 4 4 5 4 5 6 3 3 6 7 9 9 10 7 6 6 4 5 2 5 5 3 7 8 7 3 4 9 11 11 8 5 6 7 9 7 8 13 13 11 10 5 7 14 13 10 9 9 12 12 9 9 13 11 5 3 4 3 4 7 6 6 7 8 5 4 9 11 9 9 8 9 12 13 15 15 12 15 20 21 21 21
5 4 3 3 1 2 4 3 2 3 6 4 2 5 7 8 10 9 8 6 4 4 4 5 1 3 4 4 6 5 7 5 3 6 10 9 7 4 3 5 7 7 8 12 9 8 8 6 4 7 8 11 12 12 13 12 10 7 8 13 6 5 1 4 6 6 5 4 4 7 6 2 6 10 11 12 11 11 12 14 15 15 15 17 20 21 22 22
5 3 3 3 2 3 5 2 2 7 6 1 4 8 7 9 11 7 5 5 4 2 1 4 2 2 3 3 5 4 1 6 5 6 8 8 6 7 6 6 7 6 3 6 6 7 7 7 7 9 8 11 11 10 12 14 12 2 6 9 11 5 4 5 7 6 5 4 4 7 8 3 4 8 11 14 13 12 13 13 15 17 18 19 20 21 22 23
4 3 3 3 3 3 4 3 5 8 6 3 7 8 8 11 8 3 6 1 5 0 1 4 2 1 1 3 5 2 4 5 4 6 7 7 7 9 8 6 7 7 5 6 7 7 7 5 8 13 11 10 10 11 13 13 12 2 9 8 6 7 10 7 7 7 5 6 5 7 7 5 3 5 9 14 13 13 15 14 16 19 19 19 20 21 23 23
4 2 3 4 4 3 3 4 6 7 6 6 9 9 10 10 5 6 6 2 2 2 1 2 3 4 5 5 3 4 6 4 1 5 7 8 8 9 8 3 6 6 8 11 9 4 8 9 9 12 11 9 9 11 14 13 11 5 3 7 7 7 9 7 6 6 6 7 7 7 7 6 3 6 9 10 11 12 14 13 15 21 22 20 20 21 23 24
3 2 3 5 4 3 5 6 5 6 7 9 10 10 10 6 5 8 2 4 1 2 2 2 2 3 5 7 5 3 4 4 4 7 8 7 8 9 8 3 5 5 6 12 13 2 3 5 5 8 9 11 11 12 15 13 10 6 1 6 9 8 7 7 6 5 6 8 8 9 9 7 4 5 9 9 10 12 12 11 14 21 25 23 21 21 23 24
3 3 5 7 5 4 6 5 3 6 9 11 12 11 9 6 7 5 4 4 1 2 2 2 1 2 5 7 5 4 3 3 6 8 7 5 7 9 9 5 5 7 5 9 10 3 3 4 3 7 10 11 10 13 13 8 8 10 5 7 9 7 7 8 7 5 7 7 7 9 10 10 7 3 8 10 11 13 13 13 17 21 24 26 25 23 22 23
3 4 6 7 6 5 6 4 4 9 11 12 12 9 8 6 5 1 5 2 4 1 1 2 2 1 4 5 3 3 3 2 5 8 6 5 6 5 7 5 4 7 6 8 9 7 6 7 7 10 11 9 7 8 9 6 8 10 7 8 8 7 7 7 7 6 7 7 6 8 9 9 6 2 8 10 9 11 12 13 19 24 25 26 28 27 24 23
3 5 6 7 7 6 5 5 7 10 11 11 11 9 8 4 2 3 3 1 1 4 3 1 1 1 4 5 3 1 3 1 2 6 5 5 5 5 5 3 5 6 4 6 9 8 7 8 10 11 10 10 8 7 7 7 10 10 8 8 8 7 8 8 8 8 8 8 8 8 6 7 4 3 7 9 7 9 11 12 17 24 27 27 28 28 30 29
3 5 6 7 7 5 5 6 7 10 11 11 11 9 8 3 2 2 2 4 4 1 1 1 2 3 4 1 4 1 3 1 2 4 3 4 5 4 4 4 5 6 3 6 7 8 8 8 11 11 9 12 13 12 8 6 9 11 10 9 9 8 8 7 7 8 8 8 9 8 5 5 4 4 4 4 4 9 14 18 21 22 25 26 26 26 30 33
3 4 5 6 5 4 4 5 7 10 12 11 10 7 4 2 1 1 3 5 2 1 2 1 7 8 4 2 2 2 0 2 4 3 2 4 3 2 2 2 4 3 4 5 4 6 9 5 11 14 11 14 16 16 13 9 7 10 10 10 10 10 9 8 7 8 8 6 7 8 5 2 4 9 8 7 11 12 14 22 25 22 23 25 25 24 27 33
3 4 4 4 3 3 4 6 8 10 11 10 9 4 0 2 3 4 5 3 4 4 1 4 7 7 3 3 2 2 3 2 3 1 2 3 2 1 1 1 2 3 4 4 3 4 9 2 12 13 8 9 14 15 14 12 7 6 9 10 9 9 10 9 8 9 9 7 5 6 7 5 7 8 10 12 12 9 8 14 19 20 22 23 25 24 25 31
4 4 4 5 4 4 4 5 7 9 11 11 5 3 2 3 3 4 4 4 4 3 6 4 2 5 2 3 2 1 3 2 1 2 2 3 2 2 2 3 1 6 5 5 4 2 4 3 10 12 8 8 12 14 15 15 12 5 6 9 10 9 10 9 7 8 9 8 6 7 9 9 7 5 6 9 8 7 8 9 12 17 21 21 21 23 24 27
6 6 5 5 4 3 3 4 5 9 12 9 1 2 4 1 3 4 4 5 5 4 8 4 1 4 4 1 1 2 3 2 1 2 1 2 2 2 5 2 4 3 5 5 5 0 3 6 7 10 10 11 12 11 11 15 17 13 7 5 8 8 8 7 7 7 9 9 6 8 11 10 6 6 8 9 7 8 10 10 11 14 19 18 18 20 22 24
8 8 8 6 2 3 3 2 5 10 12 7 1 2 3 2 3 3 4 4 6 5 6 3 2 3 3 2 1 1 2 1 2 3 2 3 1 1 5 3 2 1 3 6 6 0 4 5 3 6 9 10 9 8 8 10 14 14 10 6 7 7 7 8 7 7 8 8 7 8 10 6 1 2 7 10 9 7 7 8 9 10 13 17 18 18 21 23
9 9 8 8 3 3 3 4 8 12 8 3 2 2 1 0 3 2 3 5 5 2 4 4 1 3 2 1 2 1 2 1 1 3 3 2 1 2 3 5 4 4 3 5 6 2 4 5 3 5 7 9 8 8 10 9 11 11 8 8 8 6 6 6 7 8 8 8 6 7 7 2 4 4 4 9 10 7 4 6 10 11 9 12 17 20 21 22
10 9 7 8 5 4 5 9 9 7 4 0 1 1 1 2 1 3 1 4 4 2 3 5 3 2 1 3 2 1 2 2 2 2 1 2 3 1 4 5 7 7 5 6 6 2 2 4 5 5 6 7 5 9 15 12 8 10 10 9 9 7 7 6 7 9 9 8 7 7 4 3 4 3 5 7 6 6 6 5 10 16 13 9 13 20 23 23
12 6 8 8 6 6 9 9 2 4 3 3 2 2 2 2 4 1 2 3 3 1 2 2 3 3 1 3 3 1 4 3 1 3 0 1 2 4 4 5 7 8 7 5 3 3 4 5 6 6 6 4 4 5 11 7 6 10 12 11 10 8 8 7 7 7 8 9 10 9 5 3 4 2 4 5 4 5 7 5 6 15 16 11 11 18 22 23
10 3 8 6 6 7 11 6 3 4 2 4 2 1 1 4 4 1 1 3 2 1 2 0 1 2 1 2 3 2 3 2 1 2 2 1 2 4 3 5 7 7 6 5 2 4 3 5 5 6 6 5 4 5 7 7 9 12 11 12 12 11 11 9 8 7 7 9 10 9 6 3 5 5 5 6 5 5 6 7 6 9 12 11 10 14 19 23
8 3 7 6 7 9 11 5 3 4 3 2 3 3 1 2 3 4 3 2 2 2 2 1 0 2 0 2 4 2 1 3 2 1 3 2 4 4 2 4 6 6 4 5 6 5 4 4 3 5 5 5 6 7 7 10 10 9 9 11 11 12 12 11 9 8 8 9 10 9 6 3 5 4 6 6 6 6 6 8 8 7 9 10 10 12 16 20
6 2 4 6 8 11 10 8 6 2 6 4 5 4 4 3 1 5 5 2 3 4 3 2 1 3 1 1 3 1 1 4 2 1 3 2 4 3 1 3 5 5 5 6 8 7 5 4 4 5 5 5 4 2 3 6 7 9 10 7 7 9 12 10 7 7 6 8 11 9 3 5 4 2 5 6 6 6 6 6 9 9 8 9 9 9 13 18
7 4 6 8 9 12 9 5 7 3 4 6 4 2 4 2 5 2 5 2 1 3 3 1 1 3 2 2 3 1 1 2 3 1 3 1 3 4 1 3 3 3 7 6 8 7 6 5 5 5 5 6 3 3 5 6 6 8 6 6 7 10 13 10 6 6 4 5 10 7 1 5 7 4 4 4 5 6 5 5 8 9 8 8 7 6 9 14
9 4 3 4 6 9 7 6 8 4 3 5 3 2 4 2 4 5 3 1 1 3 4 2 2 4 2 2 3 0 1 1 2 2 3 3 2 1 1 5 4 4 3 8 8 5 5 5 7 7 7 8 5 4 8 7 5 4 4 7 9 10 13 10 9 9 5 4 7 4 7 3 7 7 6 5 4 5 6 6 8 8 8 7 6 6 7 9
9 5 2 0 3 6 4 6 8 4 3 4 2 2 4 4 2 3 2 1 1 4 4 3 3 5 3 2 3 0 1 2 1 1 2 3 3 2 3 5 3 1 3 8 5 3 6 5 7 8 8 9 8 8 10 10 6 4 5 5 5 8 12 11 12 14 10 8 7 6 12 6 1 4 7 6 4 5 6 7 9 9 8 7 7 7 7 8
9 6 2 4 5 4 2 2 4 4 3 2 1 2 4 4 2 1 1 1 2 2 3 3 2 3 3 1 3 3 1 1 1 1 1 3 3 4 2 3 2 2 4 6 3 1 4 5 6 8 8 9 10 9 10 10 7 7 8 5 3 6 8 7 10 11 9 10 12 7 5 6 7 5 6 6 4 6 6 7 10 11 9 8 8 8 8 9
5 6 2 6 8 5 2 3 5 5 3 2 2 3 3 3 1 3 1 3 2 1 4 5 1 1 3 1 3 4 2 1 3 1 1 4 3 2 3 2 2 4 4 4 2 1 2 3 4 7 8 8 10 10 9 9 9 10 10 8 7 7 6 4 5 6 7 8 12 13 6 3 5 5 7 6 3 7 8 8 10 11 10 10 9 10 11 12
6 7 5 6 6 4 5 6 6 6 5 5 4 3 3 4 1 3 2 2 4 1 2 2 1 1 2 1 2 2 4 1 4 2 1 5 4 2 2 2 4 6 5 4 3 2 4 4 3 6 8 7 9 12 12 9 9 10 11 11 9 6 6 4 1 2 5 6 9 12 7 2 1 1 6 5 5 7 8 8 9 10 11 10 10 11 11 11
6 5 4 7 5 4 5 6 6 6 4 3 4 2 3 3 3 1 2 2 2 3 2 3 2 3 3 2 2 2 3 2 4 4 4 6 5 5 4 3 4 6 5 5 4 3 3 4 4 5 6 6 7 9 9 9 9 8 9 9 5 3 6 6 1 2 4 4 3 6 2 2 2 3 5 5 6 7 8 7 7 9 10 10 10 10 9 9
Wind_Direction
20 15 13 11 6 359 353 344 337 332 325 319 312 309 311 315 316 314 317 321 320 324 326 331 336 336 335 328 323 315 308 310 310 300 285 261 239 236 232 225 221 223 222 201 186 197 205 211 220 219 225 230 237 249 251 259 278 283 289 318 318 345 23 357 322 134 140 143 141 159 167 139 135 139 132 135 134 128 124 125 126 128 132 134 136 139 141 142
19 14 13 12 10 5 359 350 341 332 327 322 314 309 307 313 320 319 322 324 321 323 324 330 334 336 334 329 330 323 314 314 303 286 273 257 245 240 225 214 208 213 206 189 192 199 202 207 211 212 222 233 230 230 247 257 269 283 304 335 320 345 19 19 117 139 145 146 141 169 159 134 145 146 144 144 137 136 129 125 125 123 125 130 137 141 143 145
18 15 13 13 13 9 4 358 347 336 330 325 321 315 309 314 322 324 326 327 329 328 328 331 334 336 332 332 331 325 324 304 291 267 254 257 243 235 225 207 197 204 195 187 196 202 208 212 210 215 226 234 230 230 247 246 254 294 292 304 345 7 21 43 139 141 139 143 144 162 147 140 155 148 146 146 140 143 136 136 133 128 132 137 141 144 145 147
16 14 14 14 13 10 8 3 354 342 334 330 328 322 316 318 325 331 331 332 335 332 335 335 337 337 329 334 330 330 328 290 271 203 249 272 244 230 228 201 190 193 183 188 204 208 218 225 219 224 234 238 229 237 254 242 263 306 295 334 17 36 35 74 140 141 139 142 145 155 148 145 152 147 147 146 141 142 141 145 142 138 141 144 145 147 149 150
14 11 12 11 11 10 7 4 0 349 339 336 335 330 326 326 333 341 336 338 339 340 343 339 341 335 329 335 328 327 313 280 127 74 294 283 241 220 223 196 185 181 175 192 209 212 222 226 223 228 240 247 226 234 252 241 275 288 332 22 30 58 63 94 131 138 139 135 143 154 148 142 142 140 144 148 143 134 142 148 146 145 145 147 149 149 151 152
11 9 7 7 7 6 4 3 2 353 345 341 340 339 336 341 350 354 353 352 349 352 349 346 347 335 333 330 325 326 287 297 77 329 292 269 228 201 198 189 181 173 177 202 209 209 221 220 219 223 233 244 225 232 249 236 282 287 46 58 53 74 95 124 126 133 137 135 157 158 141 140 137 131 133 131 125 127 137 144 145 146 146 148 149 150 154 155
9 5 4 5 3 3 2 1 360 356 352 348 349 348 349 2 6 12 12 9 9 7 359 354 351 342 339 327 327 292 251 264 42 326 286 230 223 186 174 182 181 172 183 208 207 205 215 213 217 223 232 238 224 231 248 238 240 292 29 78 83 92 114 131 127 136 144 143 158 154 140 143 137 130 124 111 118 128 134 139 142 145 147 149 151 154 156 156
8 3 3 2 1 2 1 1 1 358 359 359 359 357 6 16 18 28 25 24 27 16 11 2 357 353 342 335 317 268 237 219 18 317 307 232 219 181 170 178 181 175 190 209 203 203 211 215 218 226 235 237 228 230 241 245 221 268 7 85 99 110 127 133 132 141 140 134 140 140 138 136 131 127 118 116 125 133 136 140 144 146 148 151 154 156 156 157
7 5 4 1 1 3 3 5 4 4 9 11 9 9 15 23 29 37 36 36 31 17 14 3 360 358 344 357 306 269 184 60 331 280 307 227 188 176 169 177 182 179 197 207 203 206 210 216 220 232 265 273 231 229 233 248 226 96 52 123 119 128 141 139 139 138 121 106 102 107 119 125 129 125 114 125 135 137 140 142 146 148 149 153 156 156 157 159
7 6 5 3 4 6 11 14 15 18 20 20 17 17 19 26 33 37 42 36 21 14 11 3 2 355 353 349 293 269 96 49 334 295 309 187 164 162 163 179 184 185 202 204 204 209 211 219 223 241 284 268 223 224 230 247 175 133 160 132 121 131 145 144 143 123 95 80 93 101 123 128 126 127 124 139 145 143 144 145 149 151 151 153 155 156 158 160
6 7 6 7 9 15 22 26 32 35 33 32 24 22 21 24 25 25 32 27 20 16 7 3 358 350 3 315 280 288 67 37 32 77 144 143 147 157 165 184 185 190 203 204 206 210 214 227 239 241 261 239 210 224 231 245 135 164 170 138 117 125 134 139 141 124 109 82 114 120 128 128 108 6 138 145 151 149 148 149 153 153 152 154 153 154 159 161
6 6 7 10 16 24 30 33 39 41 42 39 29 26 21 16 10 5 14 20 23 16 6 358 350 349 347 284 269 317 43 41 108 110 126 130 149 163 172 181 181 194 205 207 207 209 217 228 248 242 255 297 221 226 233 225 194 181 186 147 120 137 133 139 143 133 134 131 134 129 117 124 121 121 137 149 154 151 151 152 156 155 152 154 154 156 160 161
6 6 8 13 21 28 31 34 36 36 39 34 29 26 15 6 352 347 352 358 5 1 359 351 345 351 317 284 287 342 45 99 128 123 128 140 155 161 171 175 177 197 205 212 208 206 218 224 245 245 261 276 221 226 274 228 211 190 191 137 114 166 150 144 149 146 142 129 154 164 139 139 143 139 145 155 158 154 153 155 159 157 154 156 156 159 161 161
5 6 10 14 23 29 29 31 30 28 26 18 17 12 5 358 340 335 328 326 336 338 344 342 344 3 286 290 23 195 148 118 125 126 136 145 145 152 164 172 178 186 189 209 208 204 217 227 247 250 256 257 243 258 248 229 224 201 192 161 153 203 161 162 162 164 158 135 170 204 194 157 164 169 161 159 165 163 158 160 163 159 157 159 158 161 161 161
4 6 8 14 23 28 27 29 30 27 21 13 5 357 353 343 331 328 317 318 324 323 337 344 2 341 260 244 84 144 137 130 146 136 140 139 139 152 156 170 178 177 181 184 186 198 216 228 240 244 242 243 253 262 232 219 219 205 208 201 189 191 177 179 172 178 179 148 185 217 167 145 169 177 168 165 172 172 163 163 167 162 161 162 161 163 162 162
2 5 7 15 22 26 25 27 32 25 18 14 6 356 349 341 336 337 334 328 320 321 341 358 1 306 279 134 108 141 137 145 156 145 151 146 146 156 152 163 167 172 185 182 181 197 214 226 232 237 235 230 232 241 231 215 211 203 212 228 194 177 193 185 170 184 185 158 191 220 144 131 190 183 170 173 177 177 168 166 170 166 164 165 165 165 163 164
358 4 7 13 22 25 22 23 25 18 13 11 5 358 352 352 3 21 11 346 326 346 39 49 344 280 284 120 157 168 148 146 151 153 162 160 154 154 155 164 166 172 180 184 199 199 206 218 224 231 235 233 224 229 234 215 206 205 207 232 205 176 197 181 163 178 180 175 184 195 156 143 177 180 177 180 179 181 172 167 172 170 168 169 169 168 165 166
354 1 6 9 19 20 16 17 14 8 6 4 0 352 341 348 8 18 17 7 348 360 128 122 232 262 209 164 182 153 143 149 155 163 161 155 154 157 165 171 167 173 179 184 196 198 200 207 214 219 221 226 218 220 236 224 212 221 215 230 202 155 207 200 168 177 180 183 178 174 169 155 166 177 183 182 180 184 176 170 173 173 173 172 172 173 167 169
351 356 5 4 11 11 9 7 2 3 1 358 357 343 321 317 262 305 14 357 297 302 66 145 247 302 81 128 140 128 146 150 159 170 169 167 162 167 175 176 174 181 189 184 185 195 196 198 210 217 212 212 209 215 229 234 240 237 225 231 209 140 194 216 182 178 185 188 178 179 179 163 173 182 181 180 183 187 178 173 175 176 177 175 176 177 171 172
348 352 358 358 5 3 360 352 349 355 354 354 350 332 317 320 248 170 22 248 254 323 353 12 313 331 76 117 111 135 152 160 177 174 176 180 173 183 183 180 185 192 203 190 174 189 196 206 211 212 215 210 210 223 233 253 306 269 242 228 229 169 171 201 179 176 197 204 180 185 183 159 171 183 177 179 185 190 184 178 179 180 180 179 180 179 174 175
344 346 346 355 358 355 357 342 338 344 345 352 345 322 337 1 350 7 346 231 160 7 350 37 359 327 18 80 152 175 169 178 188 170 176 186 192 193 177 187 196 195 211 202 175 181 196 221 214 211 221 214 215 231 239 261 284 272 255 207 233 225 171 166 177 182 196 205 167 184 181 155 165 180 179 181 189 197 191 184 183 185 183 180 181 180 176 177
338 340 337 345 349 356 356 339 338 339 336 343 337 321 1 12 353 342 319 291 89 68 120 66 324 162 66 248 216 201 197 185 169 168 178 191 210 206 171 195 212 198 203 201 187 182 197 230 221 211 221 220 221 229 236 264 260 254 253 222 226 219 154 145 165 193 189 159 142 190 178 153 163 171 179 187 196 202 199 193 186 187 185 180 182 181 178 179
331 333 329 332 341 356 350 341 337 331 335 333 319 324 2 358 334 332 302 285 93 99 159 58 295 123 115 211 170 195 211 183 161 169 179 200 213 220 202 205 220 212 196 195 201 197 200 222 223 214 218 222 219 218 228 258 252 244 241 239 217 173 174 170 166 186 206 188 172 185 164 131 164 168 186 197 198 200 208 206 187 187 191 184 183 182 181 180
323 325 323 319 333 351 340 337 328 329 348 330 300 320 347 339 330 334 303 278 125 98 61 61 20 64 71 79 158 201 224 191 177 168 173 208 204 204 226 216 224 221 193 201 214 225 226 207 213 217 212 221 218 202 220 238 238 237 238 248 260 156 197 220 152 173 205 195 175 177 153 132 187 179 188 199 198 205 216 212 189 190 194 188 187 185 185 182
311 318 317 303 331 350 324 328 331 330 325 301 285 314 325 331 328 331 306 269 128 108 136 131 90 80 81 123 167 218 247 206 189 157 167 217 219 198 222 216 229 223 192 208 217 234 237 189 211 220 192 196 218 208 218 232 232 228 231 243 327 360 176 139 156 175 210 212 188 200 190 169 192 189 184 185 189 205 212 208 198 195 193 192 192 188 188 185
301 314 300 282 309 323 312 329 351 306 288 283 336 321 321 326 321 330 306 253 126 102 163 145 114 107 121 171 171 238 245 178 117 140 173 220 242 249 247 197 222 245 216 204 208 242 229 156 191 231 180 187 217 221 218 228 236 230 224 219 236 327 95 158 209 207 225 233 195 229 243 186 181 195 190 180 185 194 201 208 202 195 198 199 195 191 191 188
295 306 274 261 257 285 310 311 270 295 296 324 339 321 323 315 315 330 277 234 104 44 186 110 59 71 91 171 200 260 230 134 130 156 184 212 224 243 244 191 204 254 248 192 203 234 214 155 184 217 207 207 215 220 216 222 229 276 335 237 203 235 249 200 222 232 250 250 194 217 243 250 190 203 194 178 183 193 191 204 204 197 200 200 195 193 193 191
294 296 258 241 242 276 310 293 284 306 332 357 321 318 318 310 317 296 254 261 79 337 312 74 74 101 176 211 237 276 96 132 183 161 175 213 213 233 238 200 210 211 184 216 213 185 184 175 199 208 213 222 215 211 212 219 225 238 348 302 222 237 253 234 230 236 246 254 231 209 216 241 215 182 188 177 181 198 193 194 202 199 199 200 199 195 193 194
295 280 246 225 231 268 294 292 295 307 331 325 310 318 315 310 302 243 250 37 77 217 76 94 158 177 215 213 218 220 166 164 235 146 171 215 220 249 272 275 249 206 173 230 240 152 176 194 207 211 212 220 213 214 214 213 229 230 333 298 264 256 263 260 249 239 238 248 249 222 202 236 236 147 169 183 185 197 194 189 198 200 199 202 204 198 192 193
294 266 234 218 216 241 271 288 300 298 308 310 314 320 307 291 253 250 263 65 73 123 120 224 175 156 219 208 182 210 202 141 131 163 183 210 200 227 262 282 270 243 178 229 245 264 147 175 221 228 219 222 207 212 218 211 234 247 235 271 252 236 247 253 248 244 248 246 246 238 213 216 238 156 157 188 199 195 191 189 196 199 196 196 204 204 195 191
297 252 222 216 209 217 256 276 282 283 301 312 320 314 287 255 240 258 54 66 265 105 162 209 116 207 241 234 191 174 221 155 159 181 184 207 195 203 222 203 232 241 204 218 223 201 155 169 244 237 228 243 224 208 209 205 243 247 230 249 239 219 224 236 239 236 246 250 250 250 229 211 232 202 153 174 194 193 191 190 192 196 194 189 196 204 199 192
291 238 214 212 209 217 250 275 274 282 302 314 314 296 266 249 247 335 67 160 240 17 26 40 37 268 255 257 212 162 227 158 170 198 182 199 211 203 218 211 225 228 209 206 193 175 194 199 204 211 217 245 249 210 195 199 236 236 228 235 230 218 215 221 230 228 237 252 253 248 240 226 230 172 151 171 189 189 188 190 187 189 193 190 190 197 199 192
269 229 210 208 210 219 248 274 283 293 309 311 297 268 254 264 353 2 26 145 351 22 22 352 341 284 246 231 141 101 285 77 184 224 187 191 213 202 221 270 286 263 225 216 203 182 191 194 190 195 197 205 218 212 190 192 211 217 220 224 223 218 214 220 228 229 233 238 240 241 238 233 219 130 148 166 183 183 176 194 198 187 189 192 188 192 196 191
241 212 199 200 211 229 259 285 299 306 308 298 277 255 258 287 77 267 290 68 53 27 125 282 237 209 247 257 101 160 276 342 235 234 172 196 222 206 204 220 253 268 258 236 230 205 202 200 190 189 176 180 205 231 232 208 200 208 220 225 229 228 225 232 227 229 235 223 225 227 228 249 220 164 142 132 203 202 169 180 198 193 188 188 186 189 195 195
210 189 186 192 209 243 277 301 306 307 306 291 271 256 262 313 72 273 1 46 2 265 116 231 243 219 191 67 70 173 316 318 256 225 163 188 208 227 235 209 215 249 267 258 261 229 235 218 168 181 185 176 195 227 242 246 215 195 209 224 229 231 237 251 252 255 261 243 224 216 223 272 134 149 164 178 208 212 174 174 185 186 182 181 182 188 192 195
161 158 182 191 215 262 291 308 308 308 301 278 268 269 21 23 3 9 19 347 315 339 359 218 246 252 176 113 268 177 126 281 266 194 155 155 134 188 214 22 324 295 287 286 306 245 249 217 140 172 207 187 195 213 223 244 246 181 198 220 226 237 246 252 252 256 264 262 241 224 221 198 143 154 182 187 191 194 183 184 178 169 171 177 181 186 186 190
160 174 183 184 205 251 293 307 304 297 278 266 279 350 24 50 10 360 7 322 313 315 277 251 232 277 250 138 223 146 119 234 246 107 170 164 87 346 226 123 7 300 306 300 292 265 269 248 151 173 208 199 205 213 210 229 248 231 203 205 207 230 250 258 255 243 243 246 237 239 241 218 187 181 189 184 177 176 191 196 178 161 161 172 182 182 182 185
185 204 187 175 196 259 294 287 285 279 268 265 340 3 295 44 47 353 356 317 289 259 270 292 81 270 287 89 193 147 132 212 177 93 245 214 119 316 292 109 113 300 320 296 272 154 275 254 174 184 208 191 198 219 211 215 232 250 261 213 201 219 225 232 254 251 237 236 229 231 242 239 215 173 170 186 188 187 189 182 178 163 149 160 179 178 177 181
197 213 180 156 185 248 250 233 259 264 258 256 144 154 276 57 74 357 347 301 280 277 291 326 107 243 291 349 279 189 151 206 169 163 236 287 116 208 305 347 90 335 341 300 291 333 258 260 184 207 214 174 175 215 213 198 214 242 271 254 224 236 227 210 226 249 250 243 232 223 225 230 284 145 166 174 166 169 180 156 149 149 144 157 172 175 176 178
212 227 163 136 192 207 186 225 249 253 252 291 20 111 250 96 114 62 347 305 284 287 319 345 126 238 307 331 278 333 335 280 211 194 196 254 237 125 2 345 328 334 341 288 282 246 243 255 221 227 214 182 178 205 213 201 197 212 235 236 219 220 234 224 218 229 249 258 247 237 226 154 36 7 103 131 133 134 148 131 130 141 159 168 166 171 178 178
237 239 139 137 194 170 197 238 247 257 251 65 17 92 23 316 5 108 116 293 293 285 322 336 324 298 333 302 294 19 307 255 246 282 197 201 247 56 33 346 321 320 311 266 253 258 295 269 246 235 218 211 201 203 213 215 206 205 210 224 225 212 217 230 224 218 233 255 258 254 241 110 72 17 71 97 113 126 135 138 132 136 154 183 170 166 173 175
247 233 120 145 182 178 233 247 237 280 269 110 75 66 91 279 293 305 189 257 287 255 252 299 330 337 326 302 327 321 266 256 234 279 298 100 1 27 32 342 319 305 300 278 255 29 354 284 264 252 238 275 329 243 230 235 244 232 215 213 227 228 223 229 236 225 222 235 250 261 255 127 99 82 75 80 93 106 118 127 115 120 137 169 169 159 165 171
243 156 115 155 185 209 246 251 148 242 295 73 55 52 151 242 268 294 255 275 290 268 257 192 355 325 305 288 305 280 265 280 241 295 330 124 90 43 13 342 321 298 304 309 339 36 341 272 267 265 260 285 291 259 252 247 243 239 219 207 217 223 224 230 239 242 239 230 230 246 247 161 113 109 101 96 101 101 111 124 117 110 124 140 147 149 159 167
252 145 133 171 196 222 247 265 206 190 103 91 217 184 185 290 328 337 341 351 340 311 318 36 41 277 290 283 294 318 302 266 207 199 300 253 120 83 358 344 326 309 353 1 346 350 317 281 271 261 254 245 225 214 218 219 225 237 225 214 219 230 240 245 235 231 253 260 247 242 235 138 100 120 128 119 126 129 122 128 129 123 121 127 136 145 152 159
267 195 159 174 196 227 256 298 299 160 125 190 211 177 195 172 82 317 318 351 338 323 327 19 329 295 319 271 272 291 263 274 281 141 244 245 120 111 349 353 331 330 26 14 329 311 292 284 284 265 252 244 228 217 239 225 218 225 227 232 247 254 260 263 248 228 242 265 261 257 231 121 118 152 137 129 137 128 117 129 130 125 125 120 124 145 155 157
260 222 186 176 192 224 241 278 293 299 140 190 198 179 231 174 119 214 275 255 232 300 304 327 276 270 269 238 247 235 181 290 330 292 234 220 116 116 30 314 297 14 18 334 296 289 281 267 262 267 270 275 303 328 286 276 255 237 240 272 274 258 255 259 256 247 259 256 246 262 325 141 141 137 151 154 148 131 123 137 129 124 130 116 100 118 148 157
260 263 203 171 192 222 219 196 232 264 131 186 194 148 233 261 120 162 223 271 265 268 275 288 276 264 269 281 267 205 81 345 339 319 313 344 11 114 221 267 270 54 4 278 262 274 289 270 250 248 250 255 263 253 248 253 264 268 269 269 264 250 247 252 248 251 291 278 237 333 355 236 164 142 167 169 144 150 158 152 134 122 126 122 108 104 115 138
249 288 335 36 211 225 211 185 212 225 139 187 207 132 225 245 178 166 174 131 226 241 236 219 240 263 282 312 301 333 93 286 285 50 333 326 319 288 198 216 250 354 280 266 270 293 288 276 258 254 248 243 235 216 222 228 214 204 224 248 268 251 238 239 245 251 272 270 253 4 8 334 329 117 149 151 150 173 166 143 128 119 116 120 130 128 109 108
247 275 264 211 237 273 355 130 217 235 193 187 226 210 232 231 177 125 355 240 202 205 263 259 214 260 279 291 297 307 72 235 247 109 295 285 298 307 273 201 216 326 298 283 298 290 275 279 272 270 263 247 235 217 224 240 237 227 229 233 279 274 250 239 246 253 271 273 266 289 5 28 23 48 103 112 138 157 150 131 122 120 119 121 131 133 117 107
289 311 291 231 240 265 269 195 226 240 182 142 212 207 232 257 180 126 171 279 299 150 246 266 166 248 290 187 250 287 70 47 298 68 198 269 268 279 296 315 337 335 327 308 304 196 240 271 276 279 271 243 231 229 231 246 261 261 256 249 255 267 263 252 258 271 280 269 260 258 247 78 42 49 82 87 137 157 154 142 126 119 119 120 121 120 115 111
314 313 312 278 245 216 218 210 218 237 203 186 201 178 193 230 196 123 140 314 325 297 232 270 121 202 270 216 249 315 64 15 301 350 291 286 308 305 301 349 325 309 318 323 309 274 260 267 256 261 261 240 227 230 227 232 255 262 255 248 248 266 279 275 276 313 294 275 257 256 248 150 116 106 103 119 171 169 153 140 129 122 119 120 119 115 114 112
310 293 288 277 255 198 222 222 212 235 242 183 152 155 209 196 149 195 206 162 255 287 355 360 315 257 236 186 156 52 33 329 315 331 290 283 294 281 276 302 303 306 323 321 301 290 285 282 271 260 260 252 241 241 241 244 252 255 251 244 228 234 271 270 103 49 338 327 277 264 278 97 174 182 153 164 175 162 142 119 113 119 121 127 128 123 126 123